TimeEST,TemperatureF,Dew PointF,Humidity,Sea Level PressureIn,VisibilityMPH,Wind Direction,Wind SpeedMPH,Gust SpeedMPH,PrecipitationIn,Events,Conditions,WindDirDegrees,DateUTC
12:53 AM,28.9,21.0,72,30.41,10.0,Calm,Calm,-,N/A,,Clear,0,2013-03-08 05:53:00
1:53 AM,27.0,21.0,78,30.43,10.0,Calm,Calm,-,N/A,,Clear,0,2013-03-08 06:53:00
2:53 AM,27.0,21.0,78,30.44,10.0,Calm,Calm,-,N/A,,Clear,0,2013-03-08 07:53:00
3:53 AM,27.0,21.0,78,30.44,10.0,WNW,4.6,-,N/A,,Clear,290,2013-03-08 08:53:00
4:53 AM,26.1,21.0,81,30.45,10.0,NNW,3.5,-,N/A,,Clear,330,2013-03-08 09:53:00
5:53 AM,26.1,19.9,78,30.47,10.0,North,4.6,-,N/A,,Clear,350,2013-03-08 10:53:00
6:53 AM,25.0,19.9,81,30.48,10.0,North,3.5,-,N/A,,Clear,350,2013-03-08 11:53:00
7:53 AM,28.0,21.9,78,30.50,10.0,NNW,3.5,-,N/A,,Clear,340,2013-03-08 12:53:00
8:53 AM,30.9,23.0,72,30.50,10.0,North,4.6,-,N/A,,Clear,350,2013-03-08 13:53:00
9:53 AM,35.1,24.1,64,30.51,10.0,North,4.6,-,N/A,,Clear,350,2013-03-08 14:53:00
10:53 AM,37.9,24.1,57,30.50,10.0,Calm,Calm,-,N/A,,Clear,0,2013-03-08 15:53:00
11:53 AM,42.1,28.0,58,30.50,10.0,Variable,3.5,-,N/A,,Clear,0,2013-03-08 16:53:00
12:53 PM,43.0,28.0,56,30.48,10.0,Variable,5.8,-,N/A,,Clear,0,2013-03-08 17:53:00
1:53 PM,44.1,28.0,53,30.45,10.0,NNE,4.6,-,N/A,,Partly Cloudy,30,2013-03-08 18:53:00
2:53 PM,43.0,28.0,56,30.45,10.0,Calm,Calm,-,N/A,,Mostly Cloudy,0,2013-03-08 19:53:00
3:53 PM,42.1,28.0,58,30.45,10.0,ESE,8.1,-,N/A,,Overcast,120,2013-03-08 20:53:00
4:53 PM,42.1,28.0,58,30.45,10.0,East,4.6,-,N/A,,Clear,100,2013-03-08 21:53:00
5:53 PM,39.0,28.0,65,30.45,10.0,ESE,8.1,-,N/A,,Clear,110,2013-03-08 22:53:00
6:53 PM,37.0,28.0,70,30.45,10.0,SE,3.5,-,N/A,,Clear,130,2013-03-08 23:53:00
7:53 PM,35.1,28.0,76,30.44,10.0,SE,4.6,-,N/A,,Clear,140,2013-03-09 00:53:00
8:53 PM,34.0,28.9,82,30.45,10.0,Calm,Calm,-,N/A,,Clear,0,2013-03-09 01:53:00
9:53 PM,32.0,28.9,88,30.46,10.0,ENE,4.6,-,N/A,,Clear,60,2013-03-09 02:53:00
10:53 PM,30.9,28.9,92,30.46,10.0,Calm,Calm,-,N/A,,Clear,0,2013-03-09 03:53:00
11:53 PM,30.9,30.0,96,30.45,9.0,SE,3.5,-,N/A,,Clear,130,2013-03-09 04:53:00